Location: Chrząstowo
(52.0654°N, 17.1290°E)
Time: 14:20:46
(UTC+01:00)

LilacSat-2 - Visible Passes

Search period start: 18 February 2020 00:00
Search period end: 28 February 2020 00:00
Orbit: 512 x 536 km, 97.5° (Epoch: 17 February)

Date Brightness Start Highest point End Pass type
(mag) Time Alt. Az. Time Alt. Az. Time Alt. Az.
18 Feb ? 04:50:47 10° NE 04:53:27 18° E 04:56:07 10° SE visible
18 Feb ? 06:24:17 10° N 06:27:56 47° WNW 06:31:35 10° SW visible
19 Feb ? 04:39:03 10° NE 04:41:05 14° E 04:43:06 10° ESE visible
19 Feb ? 06:11:59 10° N 06:15:44 64° WNW 06:19:28 10° SSW visible
20 Feb ? 04:27:57 10° ENE 04:28:41 10° E 04:29:26 10° E visible
20 Feb ? 05:59:41 10° NNE 06:03:30 87° WNW 06:07:18 10° SSW visible
21 Feb ? 05:47:27 10° NNE 05:51:15 70° ESE 05:55:01 10° S visible
21 Feb ? 18:11:06 10° WSW 18:12:29 12° W 18:13:51 10° WNW visible
22 Feb ? 05:35:16 10° NNE 05:38:59 51° E 05:42:41 10° S visible
22 Feb ? 17:57:49 10° SW 18:00:05 15° W 18:02:23 10° NW visible
23 Feb ? 05:23:07 10° NNE 05:26:41 38° E 05:30:15 10° SSE visible
24 Feb ? 05:11:02 10° NE 05:14:23 29° E 05:17:42 10° SSE visible
25 Feb ? 04:59:01 10° NE 05:02:02 22° E 05:05:04 10° SE visible
26 Feb ? 04:47:09 10° NE 04:49:41 17° E 04:52:14 10° SE visible
27 Feb ? 04:35:29 10° ENE 04:37:18 13° E 04:39:08 10° ESE visible
